Regional Weather Roundup
Issued by NWS

Home | Current Version | Previous Version | Text Only | Print | Product List | Glossary Off
Versions: 1 2 3 4 5 6 7 8 9 10 11 12 13 14 15 16 17 18 19 20 21 22 23 24 25 26 27 28 29 30 31 32 33 34 35 36 37 38 39 40 41 42 43 44 45 46 47 48 49 50

962
ASUS44 KJAN 220310
RWRMS

MISSISSIPPI HOURLY WEATHER ROUNDUP
NATIONAL WEATHER SERVICE JACKSON MS
1000 PM CDT TUE OCT 21 2014

NOTE: "FAIR: INDICATES FEW OR NO CLOUDS BELOW 12,000 FEET WITH NO
SIGNIFICANT WEATHER AND/OR OBSTRUCTIONS TO VISIBILITY.

MSZ001>002-007>008-010>013-018>021-025>028-034>036-220400-
NORTHWEST MISSISSIPPI

CITY           SKY/WX    TMP DP  RH WIND       PRES   REMARKS
CLARKSDALE     FAIR      55  52  88 CALM      30.10R
CLEVELAND      FAIR      61  52  73 NE8       30.07S
GREENWOOD      CLEAR     59  52  77 N5        30.07R
GREENVILLE     CLEAR     64  53  67 NE7       30.07R
GRENADA          N/A    N/A N/A N/A MISG        N/A
OLIVE BRANCH   CLEAR     57  52  82 CALM      30.11R
OXFORD         FAIR      50  50 100 CALM      30.11R
TUNICA         CLEAR     54  50  87 CALM      30.11R
$$

MSZ003>006-009-014>017-022>024-029>033-037>039-220400-
NORTHEAST MISSISSIPPI

CITY           SKY/WX    TMP DP  RH WIND       PRES   REMARKS
COLUMBUS AFB   CLEAR     54  53  94 N2        30.06S
CORINTH        FAIR      52  50  93 NW5       30.09R
GOLDN TRIANGLE CLEAR     55  46  71 N5        30.06R
STARKVILLE     FAIR      55  54  94 N3        30.07R
TUPELO         CLEAR     54  49  83 NE5       30.08R
$$

MSZ040-058-220400-
CENTRAL MISSISSIPPI

CITY           SKY/WX    TMP DP  RH WIND       PRES   REMARKS
JACKSON INTL   CLEAR     58  56  93 CALM      30.06R
JACKSON HAWKNS CLEAR     62  57  83 CALM      30.06R
MERIDIAN KEY   CLEAR     56  54  93 CALM      30.06R
MERIDIAN NAS   CLEAR     60  55  83 NW3       30.05R
RAYMOND        FAIR      57  54  88 MISG      30.07R HAZE
VICKSBURG      CLEAR     58  57  97 CALM      30.06R
$$

MSZ059>079-220400-
SOUTH MISSISSIPPI

CITY           SKY/WX    TMP DP  RH WIND       PRES   REMARKS
BROOKHAVEN     FAIR      59  57  94 CALM      30.08R
HATTIESBURG    CLEAR     59  57  93 CALM      30.06R
MCCOMB         CLEAR     61  56  83 CALM      30.06R
NATCHEZ        CLEAR     59  55  88 CALM      30.07R
PINE BELT      CLEAR     57  54  88 CALM      30.06R
$$

MSZ080>082-220400-
COASTAL MISSISSIPPI

CITY           SKY/WX    TMP DP  RH WIND       PRES   REMARKS
BILOXI         CLEAR     65  60  86 NE5       30.02R
PASCAGOULA     CLEAR     54  54 100 CALM      30.03R
GULFPORT       CLEAR     62  58  86 CALM      30.02R
$$



USA.gov is the U.S. government's official web portal to all federal, state and local government web resources and services.